sat.trackr.live / text

‹ back to catalog

STARLINK-11350 [DTC]

NORAD 61540 · 2024-184J

PAYLOAD ACTIVE UNKNOWN

§ Identity

Operator
Country
US
Launch date
2024-10-15
Launch site
AFWTR
Launch vehicle
Mass (kg)
RCS (m²)

Purposes: comms

External: N2YO · Heavens-Above · Gunter

§ Orbital elements

Epoch: 2026-05-25T05:29:18.186144Z

Period
91.74 min
Inclination
53.1609°
Eccentricity
0.0000706
Mean motion
15.69708983 rev/d
Perigee alt
359.3 km
Apogee alt
360.2 km
Semi-major
6,737.9 km
B*
2.4575e-5
RAAN
218.5824°
Arg perigee
77.6499°
Mean anomaly
282.4598°
Rev number
9,244

§ Raw data

STARLINK-11350 [DTC]1 61540U 24184J   26145.22868271  .00002390  00000+0  24575-4 0  99992 61540  53.1609 218.5824 0000706  77.6499 282.4598 15.69708983 92440

JSON: /api/v1/satellites/61540 · /tle

For live sub-satellite position, see the globe view (requires WebGL).

§ Visibility from observer

Set your observer location to see the next 7 days of passes ≥ 10°. The values pass through the URL so the page stays shareable.

No JS? Fill the form by hand. The geolocation button needs JavaScript.